Regional Weather Roundup
Issued by NWS Bismarck, ND

Home | Current Version | Previous Version | Text Only | Print | Product List | Glossary On
Versions: 1 2 3 4 5 6 7 8 9 10 11 12 13 14 15 16 17 18 19 20 21 22 23 24 25 26 27 28 29 30 31 32 33 34 35 36 37 38 39 40 41 42 43 44 45 46 47 48 49 50
000
ASUS43 KBIS 210420
RWRBIS

NWR BROADCAST TEXT
NATIONAL WEATHER SERVICE BISMARCK ND
1100 PM CDT WED AUG 20 2014

NOTE: "FAIR" INDICATES FEW OR NO CLOUDS BELOW 12,000 FEET WITH NO
SIGNIFICANT WEATHER AND/OR OBSTRUCTIONS TO VISIBILITY.


CITY           SKY/WX    TMP DP  RH WIND       PRES   REMARKS
WILLISTON      PTCLDY    64  61  90 NE3       29.78R
MINOT          LGT RAIN  66  63  90 CALM      29.77R
MINOT AFB      LGT RAIN  65  65  99 SE9       29.76S
BISMARCK       MOCLDY    71  69  93 E10       29.71R
DICKINSON      CLEAR     60  57  89 W6        29.78S
GARRISON         N/A     66  64  93 NE6       29.75F
HETTINGER ARPT CLEAR     60  58  92 W6        29.79S
JAMESTOWN      LGT RAIN  72  68  87 SE6       29.79R
BEACH            N/A     61  61 100 W6        29.82S
CARRINGTON     LGT RAIN  70  70 100 E16       29.75F
CROSBY         MOCLDY    64  64 100 CALM      29.79R FOG
HARVEY         FAIR      68  68 100 SE7       29.75R
HAZEN          CLOUDY    64  64 100 CALM      29.76R
LINTON         FAIR      70  70 100 E16G22    29.70R
MANDAN         MOCLDY    68  68 100 W3        29.75R FOG
RUGBY          FAIR      70  68  94 SE7       29.75R
STANLEY        FAIR      66  66 100 E5        29.79S
TIOGA          CLOUDY    63  63 100 CALM      29.82S
WATFORD CITY   FAIR      59  59 100 CALM      29.77S
$$

CITY           SKY/WX    TMP DP  RH WIND       PRES   REMARKS
GRAND FORKS    MOCLDY    73  67  81 SE9       29.78R
GRAND FORKS AF MOCLDY    71  70  99 SE7       29.79R
DEVILS LAKE    CLOUDY    72  64  78 SE10      29.77S
FARGO          MOCLDY    74  67  78 SE13      29.77F
CANDO          MOCLDY    70  68  94 SE8       29.77F
CAVALIER       FAIR      70  66  88 E6        29.78S
GRAFTON        FAIR      70  68  94 SE8       29.78S
GWINNER        PTCLDY    73  72  94 E10       29.77R
LANGDON        FAIR      72  66  83 SE8       29.79F
ROLLA          CLOUDY    68  68 100 S9        29.79S
WALHALLA         N/A     72  72 100 SE5       29.78S
$$

CITY           SKY/WX    TMP DP  RH WIND       PRES   REMARKS
ABERDEEN       PTCLDY    72  69  90 E8        29.72R
MOBRIDGE         N/A     68  67  96 SE10      29.69S
BUFFALO          N/A     64  58  80 N6        29.76S
RAPID CITY     CLEAR     68  57  68 N13       29.82R
GLASGOW        CLEAR     67  54  63 N7        29.80R
SIDNEY         PTCLDY    64  59  82 CALM      29.79S
WOLF POINT     CLEAR     67  54  63 CALM      29.79R
GLENDIVE       CLEAR     63  59  88 W6        29.83R
MILES CITY     CLEAR     65  51  60 W7        29.82R
BAKER          CLEAR     62  57  83 W5        29.84S
$$

CITY           SKY/WX    TMP DP  RH WIND       PRES   REMARKS
BILLINGS       LGT RAIN  61  55  81 W18       29.92R
GREAT FALLS    CLOUDY    57  52  83 NE15      29.95R
ESTEVAN        CLOUDY    64  64 100 CALM      29.79R
$$



USA.gov is the U.S. government's official web portal to all federal, state and local government web resources and services.